Theta_e
347 342 340 340 341 342 341 345 352 354 357 355 354 355 350 346 345 347 348 352 355 351 341 340 340 337 335 331 334 333 330 329 334 339 341 342 342 339 332 332 331 328 326
346 343 342 345 343 342 341 340 342 346 350 353 351 349 349 347 347 349 352 349 352 352 346 339 337 340 339 336 335 332 328 318 329 339 343 342 341 337 332 329 329 327 322
346 345 345 345 347 342 341 341 341 339 341 351 353 352 348 344 345 348 351 355 353 349 349 345 342 342 341 340 338 330 318 316 333 341 342 341 339 329 330 331 324 322 321
345 347 349 348 346 346 344 342 341 342 341 338 343 344 343 342 343 346 348 354 355 353 351 351 345 342 343 341 339 328 319 314 322 337 333 331 330 331 328 324 323 322 322
347 348 349 349 351 352 352 351 350 351 349 348 345 341 339 340 343 346 346 349 355 352 353 352 348 340 344 341 339 323 321 320 315 330 333 333 332 330 327 324 321 321 323
356 358 355 355 356 355 356 356 357 357 356 355 354 355 354 348 345 351 349 349 346 350 351 350 347 338 343 341 337 330 326 324 329 326 329 332 332 329 327 324 322 322 324
354 353 355 356 359 359 359 357 358 359 358 355 357 358 358 357 356 354 353 351 339 341 351 348 339 337 339 341 339 329 327 323 322 326 329 328 329 328 326 324 323 320 321
343 339 346 352 356 358 358 358 357 355 354 355 357 356 357 360 360 359 354 351 351 352 350 342 339 336 337 340 339 329 326 319 317 319 319 325 327 327 326 323 322 318 318
332 340 346 350 353 355 353 355 355 355 356 354 356 357 356 355 356 354 353 353 354 353 346 340 338 335 337 339 338 329 323 317 319 316 316 319 313 312 314 312 318 323 323
339 336 341 338 342 352 349 349 348 342 342 348 351 352 350 338 352 352 343 339 352 347 342 343 335 335 337 338 336 331 319 319 321 315 316 315 312 314 314 312 318 321 322
338 337 337 336 337 338 336 336 337 339 337 337 339 342 343 337 339 343 346 351 348 343 341 337 338 336 339 337 335 325 321 327 325 322 320 315 323 323 323 322 322 322 321
334 338 337 335 335 341 342 336 335 336 336 337 335 334 335 339 341 350 351 351 348 342 340 340 339 338 338 338 334 324 331 330 325 322 325 325 325 324 325 325 325 324 323
333 334 334 334 335 338 348 347 348 346 336 342 342 341 340 347 352 352 350 349 342 341 341 340 341 340 338 336 333 326 334 332 324 323 324 324 325 325 325 323 324 325 325
337 338 340 338 335 337 336 336 350 347 339 340 342 348 355 354 352 352 347 348 346 344 341 341 342 341 340 339 335 326 334 332 326 324 324 325 323 323 323 324 325 325 322
338 341 338 339 339 342 338 340 341 343 345 346 346 348 350 350 348 347 345 344 345 343 345 342 341 342 340 339 334 329 328 329 322 322 322 322 322 322 322 324 323 323 321
333 338 337 332 341 341 342 340 336 336 336 334 335 334 332 337 341 344 342 343 343 344 343 341 340 339 340 339 337 328 324 324 316 321 322 322 321 321 324 323 323 322 320
334 334 339 339 340 336 339 338 340 338 337 336 335 335 335 330 330 330 332 339 341 341 341 340 340 339 340 338 336 328 326 324 318 321 322 321 322 323 323 322 321 321 318
336 337 339 341 340 332 332 335 339 339 340 340 339 340 333 335 333 331 333 339 338 341 339 339 339 337 338 337 331 327 325 321 318 320 322 323 321 323 324 321 322 318 319
340 340 340 340 339 339 338 338 337 338 342 340 338 340 336 338 336 333 335 336 336 336 337 337 338 337 336 335 330 328 328 327 323 321 323 323 323 323 322 321 321 318 318
341 342 332 331 337 339 341 342 339 342 341 338 339 340 340 340 339 337 334 334 337 338 338 338 337 337 334 332 330 330 328 325 324 324 324 324 322 322 322 319 318 317 316
342 342 339 339 342 339 342 341 341 339 334 329 336 339 341 340 339 339 337 335 335 336 336 337 337 333 331 331 330 325 325 325 325 324 321 320 323 321 320 319 318 316 316
345 343 343 341 339 338 335 338 340 338 336 328 336 340 340 339 340 339 338 335 334 335 336 337 335 332 332 327 324 324 324 324 321 318 319 322 322 321 319 318 316 316 316
343 342 341 340 339 337 332 331 334 339 339 339 338 340 340 339 339 339 337 335 334 334 335 334 334 333 329 328 324 322 323 322 321 322 322 321 320 319 317 316 316 316 315
340 341 340 333 334 332 326 334 339 340 340 339 339 340 341 340 340 339 337 336 334 334 333 334 333 330 328 323 319 323 322 323 323 322 320 320 318 318 316 316 315 315 315
341 342 342 339 332 337 338 338 339 339 339 339 339 339 341 338 337 336 335 336 334 334 332 333 331 330 322 321 323 324 323 322 321 320 320 318 317 316 316 316 314 315 316
342 343 342 340 339 335 335 334 340 340 339 338 337 338 338 338 337 336 332 332 335 334 333 332 329 322 321 323 322 323 322 321 321 316 317 316 316 315 316 314 314 316 312
Wind_Speed
17 18 21 20 21 22 20 22 25 23 18 21 19 15 17 15 12 11 12 11 13 12 10 8 9 9 10 10 10 8 6 11 8 11 15 15 14 9 7 10 8 7 9
17 20 22 19 21 23 23 22 23 24 27 25 26 25 21 18 18 16 16 18 16 15 14 14 13 14 9 10 12 10 9 8 11 11 17 16 13 10 9 12 9 10 8
23 20 21 21 21 21 23 23 24 24 27 29 29 29 26 24 24 22 19 19 20 18 17 16 11 13 12 10 7 6 3 5 6 10 16 15 15 11 12 8 5 2 5
27 23 22 20 23 23 22 23 24 26 26 29 34 33 30 28 27 26 24 21 24 24 17 14 12 16 16 12 9 7 5 5 11 11 10 12 8 3 5 6 6 3 3
32 28 26 21 20 23 24 25 25 25 26 26 27 30 31 30 29 29 26 27 27 22 22 19 16 17 16 13 10 9 9 8 11 12 10 11 11 7 4 5 5 5 6
21 17 18 18 17 16 19 22 25 27 29 31 31 30 31 33 32 30 27 20 18 32 22 20 15 18 18 14 11 10 9 12 12 12 12 13 15 11 11 11 9 8 6
11 7 8 13 17 19 21 23 23 26 28 29 35 36 34 35 33 33 29 25 26 24 26 18 13 14 17 17 15 14 11 12 12 14 13 7 13 17 15 14 13 11 10
26 23 18 17 21 26 27 27 30 32 31 31 28 30 34 35 32 31 27 24 29 25 26 14 11 12 16 18 16 16 14 12 12 13 13 13 11 12 12 13 11 7 4
23 25 14 15 20 24 29 27 28 26 29 29 29 24 20 32 36 26 24 23 29 29 24 12 12 14 15 17 18 17 15 14 12 12 10 7 7 7 6 5 10 6 0
10 14 13 15 19 20 20 19 18 15 14 15 20 26 11 45 21 24 32 31 24 22 14 15 13 15 17 18 15 17 17 14 13 12 10 6 3 6 7 6 7 4 3
8 13 18 16 10 11 14 18 29 33 25 21 26 24 38 62 46 29 28 23 23 15 7 7 9 12 19 18 16 15 14 12 12 10 5 10 9 6 6 7 6 3 5
12 12 14 13 12 13 11 4 7 9 14 9 10 5 10 23 29 29 29 28 20 11 5 2 4 5 18 19 17 16 15 12 11 8 11 10 7 6 5 7 9 7 6
13 11 12 15 13 13 11 9 11 11 8 5 6 5 16 22 27 25 14 30 22 17 13 7 6 11 7 18 21 20 18 18 12 9 9 5 8 6 5 1 5 5 5
14 11 16 18 18 15 13 11 10 8 8 8 6 7 11 17 18 15 13 21 26 22 22 20 15 17 18 16 25 26 21 20 17 15 10 10 8 4 3 5 5 6 6
11 12 11 12 12 9 8 5 8 2 1 4 6 10 13 15 11 10 11 14 17 16 22 23 18 18 21 19 25 25 26 21 19 20 9 7 10 9 4 2 3 6 8
6 9 9 10 9 7 4 4 3 2 3 5 4 4 2 4 9 11 12 14 15 17 20 20 17 19 19 19 26 26 24 21 18 19 10 10 11 9 7 10 8 9 10
5 10 8 7 5 7 7 1 5 5 3 6 5 4 2 5 7 6 6 10 13 12 14 14 18 20 19 21 26 21 19 16 17 19 15 12 8 9 8 4 5 8 10
8 9 12 8 6 7 4 11 15 7 7 5 4 4 5 5 8 8 4 13 16 17 12 13 14 15 20 22 22 19 20 17 19 17 12 12 11 5 5 3 9 9 7
8 9 11 11 9 8 1 3 15 13 10 12 12 6 6 3 4 6 5 1 10 14 13 13 12 13 15 20 22 22 17 16 20 19 16 13 6 4 2 7 10 8 6
9 11 12 9 13 9 9 9 11 6 12 9 4 3 8 2 5 6 6 4 2 6 10 11 13 14 19 21 23 19 17 26 27 21 16 9 2 3 7 3 4 3 4
11 12 11 7 6 4 7 8 3 6 8 8 3 2 2 1 3 6 6 5 2 6 9 11 12 19 22 21 20 24 26 26 17 11 9 8 5 6 3 4 3 2 6
9 13 12 10 11 9 8 5 7 3 10 6 3 1 2 3 6 6 10 7 4 4 8 13 20 22 19 21 24 21 16 8 11 16 10 4 8 5 7 4 3 3 1
7 12 14 14 14 20 15 8 3 5 3 3 1 1 2 8 10 10 9 9 9 2 11 21 20 17 17 17 15 14 9 15 14 9 8 8 6 6 5 5 3 3 6
7 11 17 17 16 14 6 6 4 2 2 1 3 2 10 7 7 11 9 7 7 2 6 16 15 13 13 16 16 16 15 10 9 11 10 10 8 9 6 6 2 4 6
7 12 14 11 2 7 3 6 4 1 3 6 5 6 10 8 11 12 8 6 4 2 7 13 11 10 17 17 22 20 14 15 12 11 12 11 10 9 10 4 2 2 6
4 9 10 5 4 8 7 6 6 4 1 6 1 8 12 14 10 9 6 5 3 2 7 11 12 19 19 22 20 14 12 11 10 7 13 12 9 11 11 7 2 3 7
Wind_Direction
214 221 218 220 219 220 220 210 208 209 220 240 245 237 236 243 235 231 231 228 237 245 246 244 251 259 255 255 262 263 267 259 242 216 221 215 213 228 243 232 249 260 288
225 224 226 228 229 224 229 227 223 219 220 232 245 251 250 251 253 248 241 245 244 243 250 245 248 261 261 250 248 259 269 252 234 204 193 196 214 231 243 233 249 265 276
222 221 226 229 228 230 233 235 235 236 232 232 239 248 253 254 254 253 253 253 256 258 251 240 251 279 266 265 267 248 244 192 183 199 191 200 206 246 239 253 198 291 314
214 220 226 234 241 240 240 239 238 242 243 239 241 247 252 255 256 252 252 254 256 254 265 251 247 303 277 270 260 247 203 175 183 186 203 219 216 200 196 227 208 234 240
215 218 227 238 251 256 255 254 254 251 253 253 249 250 253 251 249 248 246 251 261 262 247 239 239 292 267 265 243 217 207 192 170 170 193 214 216 219 198 199 183 252 229
191 218 246 254 257 264 261 263 260 261 267 269 266 261 258 258 258 255 250 248 285 262 251 238 243 276 257 249 231 229 194 190 189 199 208 219 220 225 208 210 208 229 227
152 174 244 263 241 237 240 243 244 249 254 260 263 267 266 265 264 261 249 228 249 254 236 220 274 255 248 237 238 225 210 201 212 215 222 205 210 211 212 210 238 253 251
246 247 254 252 267 263 246 241 242 244 243 244 251 264 265 268 265 262 262 256 249 250 232 242 263 236 233 229 232 218 218 211 209 223 227 224 218 225 244 260 245 231 222
241 219 209 241 250 258 259 254 253 251 245 241 241 243 275 280 269 266 266 270 258 242 235 261 254 234 219 217 218 216 213 214 212 217 218 215 235 252 247 245 184 177 327
213 208 234 284 279 275 269 266 256 256 270 257 237 233 273 329 296 265 277 274 243 231 238 270 228 215 208 210 213 219 209 207 211 201 206 207 169 134 115 133 177 184 249
237 243 260 269 271 282 275 274 262 263 268 287 276 269 251 265 288 288 274 249 233 219 247 236 213 217 202 208 211 212 203 199 194 187 187 161 144 168 160 159 165 182 220
249 233 234 248 260 250 263 292 294 266 249 224 250 286 327 237 254 277 260 229 230 212 197 179 255 246 210 211 213 201 186 199 204 195 173 171 195 222 217 221 226 237 263
244 238 251 269 276 263 264 275 278 268 270 271 234 167 198 245 268 250 236 236 209 214 219 226 263 238 230 219 210 198 194 200 193 173 182 216 269 222 180 161 212 222 273
256 258 270 266 264 266 284 287 293 296 281 283 284 254 236 233 235 229 261 236 225 234 242 265 264 259 215 218 210 196 201 200 206 202 224 240 221 190 236 288 248 250 306
264 266 292 304 301 295 290 279 310 345 254 232 220 211 211 218 225 238 242 233 241 248 251 250 257 213 204 218 212 204 204 207 206 202 203 200 190 210 240 213 252 259 283
292 298 315 309 283 289 3 9 268 168 123 114 99 116 102 196 221 232 235 238 241 244 243 245 234 225 231 223 209 206 205 207 203 204 208 232 219 214 239 287 275 285 301
277 303 311 308 312 334 273 80 281 279 191 159 148 122 60 38 17 347 258 225 222 228 213 220 230 228 231 220 208 205 208 210 204 201 204 223 217 253 267 294 260 314 328
317 315 307 302 314 352 118 208 258 248 247 174 156 108 126 89 39 15 321 212 216 219 218 222 237 227 232 213 197 181 172 176 189 203 216 227 228 241 232 246 314 322 316
315 324 348 346 324 325 214 208 232 245 263 257 212 170 178 173 47 28 8 272 209 215 216 223 217 196 199 195 185 191 198 209 208 200 204 216 232 227 241 291 309 291 311
288 297 349 296 293 292 292 284 256 229 178 181 161 269 237 252 357 10 22 12 206 181 207 210 195 219 188 191 190 213 207 192 193 196 196 187 153 303 282 287 270 267 286
315 330 328 320 283 314 343 54 77 257 328 316 212 121 195 192 313 336 9 19 230 184 196 198 202 181 177 193 205 184 183 187 210 214 194 179 213 271 251 246 254 299 319
348 320 316 309 303 285 284 304 353 336 327 216 206 328 92 196 232 280 357 5 353 195 202 202 188 187 201 186 185 194 196 219 175 161 183 217 190 251 209 236 211 299 259
324 309 307 316 313 320 277 211 335 351 11 22 51 357 117 162 213 275 328 349 351 243 189 191 196 197 193 194 197 202 219 146 138 173 199 194 222 184 194 189 200 290 314
305 330 331 333 336 354 41 135 96 348 179 246 326 173 157 196 244 316 306 303 343 286 172 203 211 207 202 183 195 171 158 141 161 169 185 197 193 207 205 183 245 305 313
337 346 8 359 127 335 348 325 322 304 209 230 196 221 198 251 289 322 300 278 322 262 196 197 202 212 170 183 171 162 153 150 156 190 205 193 199 212 186 148 220 327 5
346 341 5 46 341 315 324 293 23 32 159 75 82 239 254 273 294 322 330 264 262 240 211 196 192 171 178 176 172 172 163 171 215 240 204 193 184 172 166 140 220 142 49